Lapse_Rate
7.2 7.1 7.4 7.2 6.6 5.4 5.4 5.3 5.3 5.1 5.4 5.5 5.4 5.4 5.0 5.1 4.9 4.7 4.4 4.5 4.7 4.8 5.0 5.1 5.3 5.9 6.3 6.4 6.5 6.4 6.4 6.6
7.3 7.2 7.4 7.5 7.0 5.5 5.3 5.5 5.2 5.3 5.3 5.5 5.4 5.2 5.2 5.1 4.9 4.5 4.4 4.9 5.1 5.4 5.4 5.7 6.0 6.5 6.5 6.6 6.5 6.7 6.4 6.5
7.2 7.2 7.4 7.6 7.3 6.5 5.8 5.5 5.5 5.5 5.2 5.5 5.5 5.2 5.2 5.2 5.0 4.7 4.7 4.8 5.1 5.4 6.0 6.3 6.6 6.8 6.5 6.5 6.4 6.4 6.3 6.1
7.4 7.3 7.5 7.5 7.3 7.1 6.7 6.1 5.5 5.4 5.4 5.5 5.5 5.2 5.2 5.0 4.7 4.5 4.4 4.9 5.5 5.9 6.0 6.4 6.6 6.6 6.7 6.4 6.4 6.2 6.0 6.1
7.6 7.3 7.3 7.6 7.3 7.3 7.1 6.1 5.8 5.3 5.2 5.6 5.6 5.4 5.5 5.6 5.3 4.9 5.1 5.4 5.7 6.0 6.2 6.4 6.6 6.5 6.7 6.4 6.3 6.2 6.2 6.2
7.5 7.2 7.3 7.6 7.4 7.3 7.2 7.2 7.0 6.5 5.8 5.6 5.5 5.7 5.7 5.4 5.6 5.4 5.6 5.8 6.0 6.1 6.2 6.2 6.4 6.4 6.5 6.4 6.4 6.2 6.0 6.0
7.7 7.6 7.7 7.9 7.8 7.7 7.6 7.5 7.5 7.6 7.4 7.3 7.3 7.2 6.8 6.4 6.2 6.2 6.2 6.1 6.1 6.3 6.7 6.7 6.7 6.7 6.6 6.3 6.3 6.3 6.4 6.0
8.0 8.0 8.1 8.1 8.1 8.0 8.0 7.9 7.7 7.6 7.7 7.6 7.5 7.4 7.4 7.3 7.2 7.1 6.9 6.8 7.0 7.1 7.0 6.9 6.7 6.6 6.3 6.1 6.1 6.2 6.1 6.2
8.3 8.2 8.2 8.1 8.1 8.1 8.1 8.0 8.0 7.9 7.8 7.7 7.6 7.5 7.3 7.0 6.9 6.9 6.8 6.8 6.8 6.7 6.6 6.6 6.4 6.3 6.2 6.1 6.2 6.2 6.1 6.2
8.3 8.3 8.2 8.2 8.1 8.1 7.9 7.8 7.8 7.9 7.8 7.8 7.7 7.4 7.3 7.1 7.0 7.0 7.0 6.9 6.7 6.5 6.6 6.7 6.6 6.5 6.3 6.3 6.2 6.4 6.3 6.2
8.2 8.1 8.2 8.2 8.1 7.9 7.8 7.7 7.7 7.7 7.7 7.7 7.6 7.4 7.2 6.9 6.6 6.8 7.0 7.0 6.9 7.1 7.0 6.9 6.8 6.6 6.4 6.2 6.2 5.9 6.1 6.1
8.3 8.1 8.1 8.0 8.0 8.0 8.0 8.1 8.0 7.9 7.9 7.7 7.7 7.6 7.3 7.1 7.1 7.1 7.3 7.2 7.3 7.2 6.9 6.7 6.3 6.1 6.1 6.1 5.6 5.8 6.1 6.1
8.4 8.4 8.3 8.3 8.1 8.0 8.1 8.0 8.0 8.1 8.0 7.8 7.1 6.8 6.5 6.9 7.4 7.3 7.3 7.0 6.8 6.7 6.6 6.1 5.8 6.2 6.0 6.3 6.0 5.6 5.8 6.1
8.5 8.4 8.4 8.2 8.2 8.3 8.2 8.2 8.0 8.0 7.9 7.9 7.4 7.0 6.3 6.4 7.4 7.3 7.6 7.1 6.7 6.9 6.5 6.7 6.0 6.8 6.4 6.5 6.4 6.4 6.1 6.1
8.4 8.4 8.5 8.4 8.5 8.6 8.5 8.4 8.2 8.0 7.9 7.9 7.6 7.2 7.0 6.9 7.0 7.0 7.0 6.7 6.6 6.8 6.9 6.6 6.6 6.6 6.7 6.7 6.7 6.8 6.7 6.5
8.9 8.7 8.6 8.7 8.6 8.5 8.6 8.4 8.4 8.3 8.1 8.0 7.9 7.5 7.2 7.2 7.2 7.1 7.1 7.1 7.0 6.8 6.9 6.8 6.8 7.0 7.2 7.1 7.0 7.1 6.6 6.4
8.8 9.0 8.9 8.9 9.0 9.1 8.9 8.8 8.5 8.3 8.0 7.9 7.7 7.7 7.6 7.5 7.3 7.3 7.2 7.1 7.1 6.7 6.7 6.8 6.7 7.1 7.1 7.1 6.8 6.4 6.2 6.6
9.0 8.8 8.8 9.0 9.1 9.1 8.9 8.6 8.5 8.4 8.2 7.9 7.6 7.4 7.3 7.2 7.2 7.2 7.2 7.1 6.9 6.8 6.8 6.8 6.8 6.9 7.0 6.8 6.3 6.2 6.4 6.1
9.0 8.9 8.9 8.9 9.1 9.0 8.8 8.5 8.3 8.0 7.8 7.8 7.4 7.2 7.1 7.0 6.9 6.8 6.7 6.7 6.7 6.9 6.8 6.9 6.9 6.9 6.9 6.7 6.4 6.2 6.3 6.1
Wind_Speed
10 11 9 9 8 9 9 9 10 7 4 4 4 4 4 10 6 8 15 14 15 13 9 9 11 5 4 4 4 2 3 4
10 10 9 9 9 9 10 11 11 9 5 5 6 7 5 4 8 11 13 13 14 12 7 8 9 6 6 5 3 3 2 3
11 11 11 11 9 9 10 10 12 9 7 4 3 4 2 5 6 10 15 15 16 14 11 6 9 4 5 6 5 3 2 4
12 11 12 10 11 11 10 11 10 11 10 5 4 4 3 3 3 3 6 15 15 14 14 10 8 6 6 6 5 7 4 3
14 13 15 15 11 13 12 12 12 11 12 10 8 9 6 4 4 3 5 13 14 17 15 12 10 8 6 8 5 4 4 5
16 18 16 14 13 11 10 11 11 11 11 14 10 6 4 3 4 8 6 6 13 14 13 13 8 8 6 6 5 6 4 4
13 13 11 12 10 10 9 11 11 12 12 8 12 8 8 5 6 7 6 5 5 11 14 13 12 8 6 7 7 7 8 5
15 16 14 13 14 13 11 13 12 13 14 13 10 12 9 10 8 8 6 6 4 7 7 7 6 11 12 10 7 7 7 8
17 18 16 16 15 15 15 16 14 14 14 14 12 8 7 6 5 4 4 5 5 7 9 9 12 13 12 11 7 8 7 6
17 17 16 16 16 17 16 15 15 15 15 12 13 8 7 6 7 5 5 5 4 6 6 8 6 7 7 7 7 8 8 9
13 14 16 15 14 14 15 14 16 13 13 11 9 7 7 6 6 8 8 7 8 8 9 9 7 6 7 8 7 7 8 6
13 14 14 13 12 14 16 16 16 15 14 11 8 7 8 9 12 13 14 11 12 12 12 11 10 11 11 10 11 8 9 8
9 11 12 14 15 15 16 15 16 13 11 12 16 15 15 19 19 18 13 13 12 13 11 12 12 12 12 12 11 10 10 9
6 8 12 14 15 16 16 16 16 16 15 17 16 17 19 18 17 15 10 13 11 12 14 11 10 8 8 8 9 8 9 9
6 6 9 11 13 14 15 16 17 18 19 18 18 18 19 12 6 8 12 13 13 12 10 9 7 7 7 7 6 6 7 7
9 9 9 9 9 10 12 13 16 17 18 19 21 19 17 12 9 9 8 9 8 6 5 5 6 6 5 7 7 7 7 7
9 8 6 8 9 9 8 9 12 15 16 17 15 10 9 8 5 6 6 5 6 7 6 7 6 4 10 10 9 8 8 9
11 11 13 12 7 6 6 6 6 9 11 9 10 8 7 5 5 5 5 5 6 6 6 7 6 7 11 12 12 8 8 9
12 10 6 7 7 8 8 9 7 9 8 8 7 7 6 6 5 5 6 4 6 6 6 7 8 7 13 14 15 11 10 9
Wind_Direction
195 200 186 186 170 173 158 154 159 139 115 111 102 106 117 129 167 155 154 164 158 144 148 162 155 141 169 176 152 82 127 150
185 189 175 179 170 165 163 154 157 152 153 143 147 165 159 155 173 165 166 171 166 159 157 169 163 195 180 169 131 163 124 155
178 180 171 180 175 170 159 159 169 169 172 145 125 126 142 178 164 173 179 173 178 174 181 180 181 179 175 180 172 152 114 181
182 186 188 173 176 181 164 159 170 181 172 132 107 107 110 121 176 154 180 179 180 184 187 189 190 187 195 198 178 171 162 204
191 195 204 195 180 184 176 167 170 183 170 172 165 177 174 180 163 184 174 182 191 197 195 193 196 200 196 202 188 180 145 166
186 194 201 196 185 181 168 168 173 177 184 185 182 171 166 156 155 180 190 198 201 199 196 194 195 201 212 199 173 194 191 157
187 182 175 188 181 175 172 173 180 185 188 182 183 175 178 170 175 188 199 198 199 207 203 201 204 204 197 206 208 197 203 194
173 171 175 178 184 173 176 181 189 190 191 195 190 196 192 194 190 198 184 198 202 212 194 193 198 207 207 201 197 207 199 208
181 181 178 180 188 182 181 183 188 188 190 198 200 196 206 215 208 194 210 204 199 183 201 201 209 207 205 198 205 210 201 212
185 182 182 181 184 186 187 191 196 192 191 192 200 192 195 193 202 202 205 203 199 196 198 208 208 208 203 190 209 208 197 206
175 182 188 189 184 179 182 192 199 196 194 192 196 187 188 200 203 215 209 208 197 194 197 200 198 185 185 197 220 207 209 217
179 185 188 183 179 179 183 190 191 193 192 187 179 182 198 206 215 221 223 213 204 207 208 201 203 207 199 192 211 194 197 205
192 181 171 176 183 184 192 189 195 189 188 186 194 195 209 222 223 231 231 218 206 204 197 215 219 203 194 198 201 193 191 198
183 172 180 182 186 190 191 191 191 192 188 198 207 215 228 239 227 225 206 211 210 207 211 215 215 194 197 193 204 197 194 197
218 206 197 192 192 191 190 192 191 189 194 200 209 215 229 240 221 194 195 202 208 218 207 202 179 176 186 173 179 164 160 162
217 214 212 202 191 187 194 187 186 188 195 198 207 213 218 218 198 199 204 205 211 209 179 151 148 162 164 159 155 149 143 134
219 219 233 216 209 194 186 179 177 179 190 199 205 201 194 190 171 161 165 165 160 159 166 163 165 149 141 135 137 141 139 135
212 211 217 219 193 149 151 126 122 168 182 172 168 161 161 148 132 137 145 135 123 124 129 134 133 119 134 131 123 123 120 111
215 224 190 138 130 111 121 126 129 132 141 138 137 136 132 128 134 134 121 126 135 135 132 124 115 110 116 116 108 106 96 96